Home   Weather   Frankfurt   Past weeks
Flag for Germany

Past Weather in Frankfurt, Hesse, Germany — Yesterday and Last 2 Weeks

Now
66 °F

Passing clouds.


Feels Like: 66 °F
Forecast: 56 / 50 °F
Wind: 8 mph from East

Location: Frankfurt-M-Flughafen Airport

Current Time: Apr 25, 2019 at 12:37:34 pm

Latest Report: Apr 25, 2019 at 12:20 pm


Visibility: N/A

Pressure: 29.80 "Hg

Humidity: 43%

Dew Point: 43 °F

Location of FrankfurtLocation

Past Weather in Frankfurt — Graph

°F

Frankfurt Temperature Yesterday

Maximum temperature yesterday: 77 °F (at 3:20 pm)
Minimum temperature yesterday: 46 °F (at 11:50 pm)
Average temperature yesterday: 62 °F

High & Low Weather Summary for the Past Weeks

 TemperatureHumidityPressure
High77 °F (Apr 20, 4:20 pm)100% (Apr 17, 4:50 am)30.39 "Hg (Apr 17, 4:50 am)
Low34 °F (Apr 12, 6:20 am)17% (Apr 21, 5:20 pm)29.45 "Hg (Apr 23, 7:20 pm)
Average55 °F50%30.05 "Hg
* Reported Apr 10 11:20 am — Apr 25 11:20 am, Frankfurt. Weather by CustomWeather, © 2019

Note: Actual official high and low records may vary slightly from our data, if they occured in-between our weather recording intervals... More about our weather records

Advertising

Frankfurt Weather History for the Previous 24 Hours

Scroll right to see more
 ConditionsComfort  
Time TempWeatherWind HumidityBarometerVisibility
11:20 am
Thu, Apr 25
63 °FSunny.5 mph52%29.83 "Hg10 mi
10:50 am61 °FSunny.5 mph52%29.83 "Hg10 mi
10:20 am59 °FSunny.3 mph51%29.83 "Hg10 mi
9:50 am57 °FPassing clouds.3 mph59%29.83 "HgN/A
9:20 am55 °FPassing clouds.3 mph63%29.83 "HgN/A
8:50 am52 °FSunny.2 mph72%29.83 "Hg10 mi
8:20 am50 °FPassing clouds.7 mph71%29.83 "HgN/A
7:50 am48 °FPassing clouds.7 mph82%29.80 "HgN/A
7:20 am46 °FPassing clouds.5 mph87%29.83 "HgN/A
6:50 am43 °FPassing clouds.6 mph93%29.83 "HgN/A
6:20 am43 °FSunny.6 mph87%29.83 "Hg10 mi
5:50 am43 °FClear.5 mph93%29.80 "Hg10 mi
5:20 am43 °FClear.3 mph93%29.80 "Hg10 mi
4:50 am45 °FPassing clouds.3 mph87%29.80 "HgN/A
4:20 am46 °FClear.5 mph87%29.80 "Hg10 mi
3:50 am43 °FClear.5 mph93%29.80 "Hg10 mi
3:20 am43 °FClear.6 mph93%29.80 "Hg10 mi
2:50 am43 °FClear.6 mph93%29.80 "Hg10 mi
2:20 am45 °FClear.3 mph93%29.77 "Hg10 mi
1:50 am45 °FPassing clouds.3 mph93%29.77 "HgN/A
1:20 am45 °FPassing clouds.2 mph93%29.77 "HgN/A
12:50 am45 °FPassing clouds.3 mph93%29.77 "HgN/A
12:20 am45 °FPassing clouds.7 mph87%29.77 "HgN/A
11:50 pm
Wed, Apr 24
46 °FPassing clouds.5 mph93%29.77 "HgN/A
11:20 pm48 °FPassing clouds.1 mph87%29.77 "HgN/A
10:50 pm50 °FPassing clouds.5 mph82%29.80 "HgN/A
10:20 pm50 °FScattered showers. Passing clouds.6 mph82%29.77 "HgN/A
9:20 pm50 °FScattered showers. Passing clouds.22 mph82%29.80 "HgN/A
8:50 pm54 °FPassing clouds.28 mph72%29.77 "HgN/A
8:20 pm54 °FPassing clouds.29 mph72%29.77 "HgN/A
7:50 pm55 °FThundershowers. Partly sunny.35 mph72%29.68 "HgN/A
7:20 pm61 °FSprinkles. Partly sunny.25 mph59%29.62 "HgN/A
6:50 pm66 °FStrong thunderstorms. Scattered clouds.30 mph46%29.56 "HgN/A
6:20 pm75 °FSunny.8 mph36%29.53 "Hg10 mi
5:50 pm75 °FPassing clouds.12 mph36%29.53 "HgN/A
5:20 pm77 °FPassing clouds.12 mph34%29.53 "HgN/A
4:50 pm77 °FPassing clouds.14 mph32%29.53 "HgN/A
4:20 pm75 °FPassing clouds.12 mph36%29.56 "HgN/A
3:50 pm77 °FPassing clouds.14 mph34%29.56 "HgN/A
3:20 pm77 °FPassing clouds.9 mph34%29.56 "HgN/A
2:50 pm75 °FPassing clouds.6 mph34%29.56 "HgN/A
2:20 pm75 °FPassing clouds.6 mph34%29.59 "HgN/A
1:50 pm73 °FPassing clouds.6 mph33%29.59 "HgN/A
1:20 pm73 °FSunny.5 mph38%29.59 "Hg10 mi
12:50 pm72 °FSunny.6 mph41%29.62 "Hg10 mi
12:20 pm72 °FSunny.3 mph41%29.62 "Hg10 mi
Weather by CustomWeather, © 2019

See weather overview